Location: Newark
(48.2308°N, 120.8549°W)
Time: 05:47:01
(UTC+00:00)

Courier 1B - All Passes

Search period start: 06 June 2020 00:00
Search period end: 16 June 2020 00:00
Orbit: 963 x 1209 km, 28.3° (Epoch: 05 June)

Date Brightness Start Highest point End Pass type
(mag) Time Alt. Az. Time Alt. Az. Time Alt. Az.
06 Jun - 05:48:39 10° SSW 05:51:42 13° SSE 05:54:49 10° SE visible
06 Jun - 07:40:33 10° SW 07:44:27 15° S 07:48:25 10° SSE visible
07 Jun - 04:56:26 10° S 04:58:16 11° SSE 05:00:06 10° SSE visible
07 Jun - 06:47:08 10° SSW 06:50:55 15° S 06:54:49 10° SSE visible
07 Jun - 08:41:24 10° SSW 08:43:41 12° SSW 08:45:59 10° S night (unlit)
08 Jun - 05:53:55 10° SSW 05:57:26 14° S 06:01:02 10° SE visible
08 Jun - 07:47:11 10° SW 07:50:10 13° S 07:53:13 10° SSE visible
09 Jun - 05:00:58 10° SSW 05:03:58 13° S 05:07:02 10° SE visible
09 Jun - 06:53:23 10° SW 06:56:40 14° S 07:00:02 10° SSE visible
10 Jun - 04:08:25 10° S 04:10:33 12° SSE 04:12:42 10° SSE daylight
10 Jun - 05:59:52 10° SSW 06:03:11 14° S 06:06:37 10° SSE visible
11 Jun - 05:06:33 10° SSW 05:09:44 14° S 05:13:01 10° SSE visible
11 Jun - 07:00:51 10° SSW 07:02:25 11° SSW 07:04:00 10° S visible
12 Jun - 04:13:27 10° SSW 04:16:18 13° S 04:19:13 10° SSE daylight
12 Jun - 06:06:35 10° SSW 06:08:58 12° S 06:11:23 10° S visible
13 Jun - 03:20:38 10° S 03:22:54 12° S 03:25:10 10° SSE daylight
13 Jun - 05:12:50 10° SSW 05:15:31 13° S 05:18:16 10° SSE visible
14 Jun - 02:28:35 10° S 02:29:30 10° SSE 02:30:26 10° SSE daylight
14 Jun - 04:19:20 10° SSW 04:22:05 13° S 04:24:54 10° SSE daylight
15 Jun - 03:26:02 10° SSW 03:28:41 13° S 03:31:21 10° SSE daylight
